TimeCST,TemperatureF,Dew PointF,Humidity,Sea Level PressureIn,VisibilityMPH,Wind Direction,Wind SpeedMPH,Gust SpeedMPH,PrecipitationIn,Events,Conditions,WindDirDegrees,DateUTC
12:15 AM,25.7,21.7,85,30.20,7.0,NNW,11.5,17.3,N/A,,Overcast,340,2014-02-03 06:15:00
12:35 AM,25.7,20.8,82,30.21,7.0,NNW,12.7,18.4,N/A,,Overcast,340,2014-02-03 06:35:00
12:55 AM,25.7,20.1,79,30.21,7.0,North,9.2,-,N/A,,Overcast,350,2014-02-03 06:55:00
1:15 AM,25.7,20.3,80,30.21,4.0,NNW,12.7,17.3,N/A,Snow,Light Snow,340,2014-02-03 07:15:00
1:35 AM,25.5,20.3,81,30.21,7.0,NNW,13.8,-,N/A,,Overcast,330,2014-02-03 07:35:00
1:55 AM,25.2,19.2,78,30.21,10.0,North,13.8,18.4,N/A,,Overcast,350,2014-02-03 07:55:00
2:15 AM,25.2,19.4,79,30.22,10.0,North,6.9,-,N/A,,Overcast,360,2014-02-03 08:15:00
2:35 AM,25.2,19.0,78,30.22,10.0,North,6.9,-,N/A,,Overcast,360,2014-02-03 08:35:00
2:55 AM,25.2,19.2,78,30.24,10.0,NNW,8.1,-,N/A,,Overcast,340,2014-02-03 08:55:00
3:15 AM,24.8,19.8,81,30.25,7.0,NNW,8.1,-,N/A,,Overcast,330,2014-02-03 09:15:00
3:35 AM,23.9,18.3,79,30.25,7.0,NNW,11.5,16.1,N/A,,Overcast,340,2014-02-03 09:35:00
3:55 AM,23.4,17.1,77,30.25,7.0,NNW,6.9,16.1,N/A,,Mostly Cloudy,330,2014-02-03 09:55:00
4:15 AM,22.1,16.2,78,30.26,7.0,NNW,6.9,-,N/A,,Scattered Clouds,330,2014-02-03 10:15:00
4:35 AM,21.6,15.8,78,30.25,7.0,North,5.8,-,N/A,,Clear,350,2014-02-03 10:35:00
4:55 AM,20.5,15.6,81,30.26,7.0,North,5.8,-,N/A,,Scattered Clouds,350,2014-02-03 10:55:00
5:15 AM,21.0,15.4,79,30.27,7.0,NNW,9.2,-,N/A,,Overcast,340,2014-02-03 11:15:00
5:35 AM,21.0,15.3,78,30.28,7.0,NNW,9.2,-,N/A,,Overcast,340,2014-02-03 11:35:00
5:55 AM,21.2,15.4,78,30.29,7.0,NNW,10.4,-,N/A,,Overcast,330,2014-02-03 11:55:00
6:15 AM,20.7,14.9,78,30.29,7.0,North,8.1,-,N/A,,Overcast,350,2014-02-03 12:15:00
6:35 AM,20.1,14.7,80,30.29,7.0,NNW,10.4,-,N/A,,Overcast,340,2014-02-03 12:35:00
6:55 AM,19.4,13.8,79,30.30,7.0,North,10.4,-,N/A,,Mostly Cloudy,350,2014-02-03 12:55:00
7:15 AM,18.5,13.1,79,30.31,7.0,NNW,6.9,-,N/A,,Overcast,340,2014-02-03 13:15:00
7:35 AM,17.6,12.4,80,30.31,7.0,NNW,6.9,-,N/A,,Scattered Clouds,340,2014-02-03 13:35:00
7:55 AM,17.2,11.8,79,30.32,7.0,NNW,6.9,-,N/A,,Clear,340,2014-02-03 13:55:00
8:15 AM,17.8,11.7,77,30.33,7.0,North,8.1,-,N/A,,Clear,350,2014-02-03 14:15:00
8:35 AM,18.3,11.7,75,30.34,7.0,North,5.8,-,N/A,,Clear,360,2014-02-03 14:35:00
8:55 AM,18.5,11.7,75,30.35,7.0,NNW,5.8,-,N/A,,Clear,340,2014-02-03 14:55:00
9:15 AM,19.0,11.7,73,30.35,10.0,NNW,5.8,-,N/A,,Clear,340,2014-02-03 15:15:00
9:35 AM,20.1,12.2,71,30.36,10.0,North,5.8,-,N/A,,Clear,350,2014-02-03 15:35:00
9:55 AM,20.8,12.6,70,30.35,10.0,North,4.6,-,N/A,,Clear,350,2014-02-03 15:55:00
10:15 AM,21.6,13.1,70,30.36,10.0,NNW,3.5,-,N/A,,Clear,340,2014-02-03 16:15:00
10:35 AM,22.3,13.5,69,30.36,10.0,NNW,6.9,-,N/A,,Clear,340,2014-02-03 16:35:00
10:55 AM,23.7,14.0,66,30.35,10.0,North,3.5,-,N/A,,Clear,360,2014-02-03 16:55:00
11:15 AM,25.5,14.9,64,30.34,10.0,North,6.9,-,N/A,,Clear,360,2014-02-03 17:15:00
11:35 AM,26.2,15.1,63,30.35,10.0,NE,6.9,-,N/A,,Clear,40,2014-02-03 17:35:00
11:55 AM,26.6,15.4,63,30.34,10.0,NNW,3.5,-,0.01,,Clear,340,2014-02-03 17:55:00
12:15 PM,27.9,14.7,58,30.32,10.0,NNE,5.8,-,N/A,,Clear,30,2014-02-03 18:15:00
12:35 PM,28.4,14.5,56,30.29,10.0,NNE,8.1,-,N/A,,Clear,30,2014-02-03 18:35:00
12:55 PM,28.9,14.9,56,30.29,10.0,NE,5.8,-,N/A,,Clear,40,2014-02-03 18:55:00
1:15 PM,29.7,16.3,58,30.30,10.0,North,5.8,-,N/A,,Clear,360,2014-02-03 19:15:00
1:35 PM,30.2,15.8,55,30.30,10.0,Calm,Calm,-,N/A,,Clear,0,2014-02-03 19:35:00
1:55 PM,30.9,15.8,54,30.29,10.0,North,5.8,-,N/A,,Clear,360,2014-02-03 19:55:00
2:15 PM,30.9,15.3,52,30.29,10.0,Calm,Calm,-,N/A,,Clear,0,2014-02-03 20:15:00
2:35 PM,31.1,15.6,53,30.29,10.0,North,3.5,-,N/A,,Clear,350,2014-02-03 20:35:00
2:55 PM,31.6,16.0,52,30.29,10.0,Calm,Calm,-,N/A,,Clear,0,2014-02-03 20:55:00
3:15 PM,33.1,15.8,49,30.30,10.0,East,3.5,-,N/A,,Clear,90,2014-02-03 21:15:00
3:35 PM,32.4,15.6,50,30.29,10.0,East,3.5,-,N/A,,Clear,90,2014-02-03 21:35:00
3:55 PM,31.8,15.4,51,30.29,10.0,NNE,3.5,-,N/A,,Clear,20,2014-02-03 21:55:00
4:15 PM,31.5,15.4,52,30.30,10.0,Calm,Calm,-,N/A,,Clear,0,2014-02-03 22:15:00
4:35 PM,31.5,16.2,53,30.30,10.0,Calm,Calm,-,N/A,,Clear,0,2014-02-03 22:35:00
4:55 PM,31.5,15.6,52,30.29,10.0,Calm,Calm,-,N/A,,Clear,0,2014-02-03 22:55:00
5:15 PM,30.0,15.8,56,30.30,10.0,Calm,Calm,-,N/A,,Clear,0,2014-02-03 23:15:00
5:35 PM,27.9,15.8,61,30.30,10.0,Calm,Calm,-,N/A,,Clear,0,2014-02-03 23:35:00
5:55 PM,27.9,16.2,62,30.31,10.0,Calm,Calm,-,N/A,,Clear,0,2014-02-03 23:55:00
6:15 PM,26.6,16.5,66,30.31,10.0,Calm,Calm,-,N/A,,Clear,0,2014-02-04 00:15:00
6:35 PM,23.5,14.7,69,30.32,10.0,Calm,Calm,-,N/A,,Clear,0,2014-02-04 00:35:00
6:55 PM,22.6,15.4,74,30.32,7.0,Calm,Calm,-,N/A,,Clear,0,2014-02-04 00:55:00
7:15 PM,21.9,16.5,80,30.31,10.0,Calm,Calm,-,N/A,,Clear,0,2014-02-04 01:15:00
7:35 PM,19.2,14.2,81,30.32,7.0,Calm,Calm,-,N/A,,Clear,0,2014-02-04 01:35:00
7:55 PM,18.7,15.6,88,30.32,7.0,Calm,Calm,-,N/A,,Clear,0,2014-02-04 01:55:00
8:15 PM,18.3,17.6,97,30.32,5.0,Calm,Calm,-,N/A,,Clear,0,2014-02-04 02:15:00
8:35 PM,19.0,18.0,96,30.32,5.0,Calm,Calm,-,N/A,,Clear,0,2014-02-04 02:35:00
8:55 PM,16.5,14.7,93,30.31,5.0,ENE,3.5,-,N/A,,Clear,60,2014-02-04 02:55:00
9:15 PM,16.7,15.6,96,30.31,5.0,Calm,Calm,-,N/A,,Clear,0,2014-02-04 03:15:00
9:35 PM,18.3,17.1,95,30.30,5.0,Calm,Calm,-,N/A,,Clear,0,2014-02-04 03:35:00
9:55 PM,18.1,16.9,95,30.30,5.0,Calm,Calm,-,N/A,,Clear,0,2014-02-04 03:55:00
10:15 PM,18.1,17.6,98,30.31,5.0,Calm,Calm,-,N/A,,Clear,0,2014-02-04 04:15:00
10:35 PM,18.7,18.0,97,30.30,5.0,Calm,Calm,-,N/A,,Clear,0,2014-02-04 04:35:00
10:55 PM,17.8,16.9,96,30.30,4.0,Calm,Calm,-,N/A,,Clear,0,2014-02-04 04:55:00
11:15 PM,18.5,17.8,97,30.30,5.0,Calm,Calm,-,N/A,,Clear,0,2014-02-04 05:15:00
11:35 PM,17.8,16.9,96,30.29,5.0,Calm,Calm,-,N/A,,Clear,0,2014-02-04 05:35:00
11:55 PM,20.1,18.0,91,30.28,5.0,ENE,3.5,-,N/A,,Clear,60,2014-02-04 05:55:00